Wind_Speed
18 19 18 18 19 19 19 18 18 17 18 20 21 21 21 20 19 19 19 18 18 18 17 17 17 17 16 16 16 16 16 16 16 15 16 15 15 16 16 16 17 17 17 17
19 20 20 21 20 20 20 19 19 19 20 21 22 21 21 20 20 19 19 19 19 19 19 18 18 17 17 16 16 16 17 17 16 16 16 17 17 17 17 17 18 18 18 18
20 20 21 21 20 20 20 20 20 20 21 22 22 22 21 21 20 20 20 19 20 20 20 20 19 18 17 17 16 16 16 17 17 17 18 18 18 18 18 19 19 19 19 19
22 22 23 20 20 20 21 20 21 21 22 22 23 22 22 21 21 21 20 20 20 20 20 20 19 19 18 18 18 17 17 17 18 18 19 19 19 19 19 20 20 21 21 20
23 23 23 21 21 21 21 21 22 22 23 23 23 23 22 21 22 21 21 21 21 22 21 21 20 20 20 19 19 19 19 18 19 19 19 20 20 21 21 21 21 22 22 21
25 25 25 23 22 22 22 23 23 24 24 24 23 23 23 22 23 22 22 22 22 22 22 21 20 20 20 20 19 20 20 20 20 21 21 21 21 22 22 21 22 23 22 22
27 27 26 24 24 24 24 24 24 24 24 24 25 24 24 24 23 23 23 22 22 23 22 21 20 20 20 20 20 20 20 21 21 21 22 22 22 22 22 22 23 23 23 23
27 27 26 26 26 26 26 25 25 25 24 25 25 25 25 25 24 24 23 22 22 22 22 21 21 21 21 21 21 21 21 22 22 22 22 22 22 23 22 23 23 23 23 24
29 28 27 27 27 27 28 27 27 26 26 26 26 26 25 24 23 23 23 23 23 22 22 21 21 21 21 22 22 22 23 23 23 23 23 23 23 23 23 23 24 24 24 24
30 30 29 29 28 28 28 28 28 28 27 27 27 26 25 24 23 23 23 24 24 24 23 23 23 23 23 24 24 24 25 25 25 25 25 25 25 25 25 25 25 26 26 26
31 31 31 31 31 30 30 29 28 27 27 27 27 27 26 25 25 25 24 24 24 25 25 25 25 25 25 25 26 26 26 26 27 26 26 26 26 26 27 27 27 28 28 28
31 31 32 32 32 31 30 30 29 29 28 27 27 27 27 27 27 26 25 25 25 26 26 25 26 26 26 26 26 26 27 27 28 28 28 27 27 28 28 28 28 29 30 30
32 33 33 32 32 31 30 30 29 29 28 28 27 28 28 28 27 27 27 27 27 27 26 27 27 27 27 27 28 28 28 29 29 28 28 28 28 29 30 30 30 30 31 31
34 34 33 32 31 30 30 29 28 28 28 28 27 27 28 28 27 27 28 28 28 28 27 28 28 28 29 29 29 29 29 29 30 30 30 30 30 30 31 31 31 32 32 33
35 34 33 32 32 31 30 29 29 28 28 28 27 28 28 28 28 28 28 28 28 29 28 29 29 30 30 31 31 31 31 31 31 32 32 32 32 32 32 33 32 32 33 33
35 34 34 34 33 32 31 30 30 30 30 29 29 28 28 28 27 27 28 28 28 28 28 29 29 30 31 31 32 32 33 33 34 34 34 34 34 34 34 34 34 34 34 33
35 34 34 34 34 32 32 31 31 31 31 30 30 29 29 28 28 27 27 28 28 29 29 29 30 30 31 32 32 33 34 34 35 35 35 36 35 35 36 36 36 36 35 35
33 33 33 33 33 33 32 31 31 31 31 31 30 30 30 29 29 29 29 29 30 30 30 30 30 31 31 32 33 34 34 35 35 36 36 37 37 37 37 38 38 38 38 37
33 33 33 33 33 32 32 32 31 32 32 32 31 31 31 31 31 31 31 31 31 31 32 32 32 32 33 33 34 35 35 36 36 36 37 37 37 37 38 38 39 39 39 38
32 33 33 33 32 32 32 32 32 32 32 32 32 32 32 32 32 33 32 32 32 33 33 33 33 34 34 34 35 35 36 36 36 37 38 38 39 39 40 40 41 40 40 40
33 33 33 33 33 33 33 33 33 33 33 33 33 33 33 33 33 33 33 33 33 34 34 34 34 34 34 35 35 36 36 36 37 37 38 38 39 40 41 41 41 41 41 41
33 33 33 33 33 33 33 34 34 34 33 33 33 34 33 33 34 34 34 34 34 34 35 35 35 35 35 36 36 37 37 38 38 38 39 39 39 40 41 41 42 42 42 42
33 34 34 34 34 34 35 35 35 35 34 34 35 35 35 35 35 36 35 35 35 35 35 36 36 36 37 37 37 38 38 38 39 39 40 40 40 41 41 41 42 42 42 42
34 34 34 35 35 35 36 36 36 36 36 36 36 36 36 35 35 36 36 36 36 36 36 37 37 37 38 38 38 39 39 39 40 40 41 41 42 42 42 42 41 41 41 42
36 36 36 36 36 36 36 36 36 36 36 37 37 37 37 37 36 36 36 36 37 37 37 38 38 38 38 38 39 40 40 41 41 41 41 41 42 42 42 42 42 42 41 42
36 37 37 37 37 37 37 37 37 36 36 36 36 36 37 37 37 37 37 37 37 38 39 39 40 40 40 40 40 41 42 42 42 42 42 43 43 43 43 43 43 43 43 43
36 36 36 37 36 36 36 36 36 35 36 37 37 37 37 38 38 38 38 38 39 39 40 40 41 41 42 42 42 42 43 43 43 43 43 44 44 45 45 45 45 45 45 44
Wind_Direction
257 260 265 270 273 274 274 274 274 273 275 278 281 283 288 290 290 288 287 284 282 283 284 284 282 279 277 277 278 281 282 286 288 291 294 294 292 292 292 293 293 294 292 291
257 260 262 265 269 272 273 273 274 275 276 278 281 283 286 288 288 286 286 285 282 284 284 284 283 280 275 274 276 278 280 282 285 287 290 291 290 291 292 293 293 293 292 291
258 262 265 266 268 270 272 273 274 274 275 277 281 284 286 286 287 288 287 285 284 283 283 283 282 280 275 275 276 278 280 282 284 284 286 287 287 288 290 291 293 292 292 292
260 261 262 268 268 269 272 274 274 275 276 278 280 284 286 286 286 286 286 284 283 284 283 282 281 280 276 276 277 278 280 283 284 283 284 284 283 285 288 290 291 292 292 292
261 263 265 265 266 268 271 273 274 275 275 276 280 283 283 284 285 286 284 283 283 284 284 282 279 277 275 276 278 279 280 282 284 284 285 284 285 286 288 290 291 291 291 292
262 264 266 267 267 269 271 273 274 276 278 279 280 282 283 284 282 283 284 284 284 285 284 281 278 275 274 275 277 279 282 285 286 288 287 287 287 287 289 289 290 292 291 292
261 264 266 267 268 269 270 273 275 277 279 280 281 282 283 284 283 282 283 284 286 287 284 281 277 274 274 275 275 278 281 284 286 288 288 287 287 288 288 289 289 290 290 290
260 262 264 266 268 269 271 272 274 276 278 279 280 281 282 282 283 283 284 285 285 285 283 280 277 275 274 274 276 278 280 283 285 287 288 286 286 288 289 289 289 289 290 290
261 264 266 267 268 269 270 272 273 274 274 277 279 280 281 282 283 283 284 285 284 282 279 276 275 275 275 276 277 279 281 282 284 286 286 284 285 287 288 289 290 290 289 291
262 263 265 266 267 269 270 271 272 273 275 277 278 278 279 281 281 282 283 283 282 278 277 277 277 276 276 276 277 279 282 283 284 285 286 285 284 285 287 288 288 289 289 290
262 263 264 266 268 269 270 272 273 274 275 275 275 275 276 277 278 279 282 281 282 281 278 276 276 277 277 276 277 279 281 282 283 284 284 284 283 284 285 287 288 289 289 289
263 264 265 266 267 269 271 272 272 272 273 274 275 275 275 276 276 277 279 279 279 280 280 277 276 276 277 277 277 278 279 281 283 282 282 283 284 284 284 286 287 287 288 288
263 265 266 268 269 270 270 269 269 270 273 274 275 276 276 276 276 277 277 278 278 278 278 279 278 277 278 277 278 279 280 281 282 282 282 282 284 285 284 285 287 288 288 288
263 265 266 267 268 269 269 269 269 270 273 275 275 276 276 277 278 278 278 278 278 278 277 278 279 278 278 278 278 279 280 281 282 283 282 283 284 286 287 287 287 286 286 287
263 265 265 265 266 267 268 267 268 270 273 276 277 277 276 276 278 278 278 279 279 278 278 278 279 279 280 280 280 279 280 281 281 282 282 283 285 286 287 288 288 288 288 288
262 262 262 263 264 265 266 266 268 269 272 275 277 277 277 277 279 280 279 279 279 279 279 279 280 280 280 281 279 279 280 281 281 282 283 283 284 285 286 287 287 288 288 288
261 262 262 262 262 263 264 266 268 270 272 274 276 276 276 277 279 280 280 279 279 279 280 281 281 281 281 282 281 280 281 282 282 283 284 284 285 286 286 286 286 287 287 287
261 260 261 262 262 263 264 266 268 270 271 273 275 275 275 276 277 279 280 280 279 279 280 281 282 283 283 283 283 282 282 282 283 283 284 284 285 286 286 286 286 286 287 287
259 258 260 262 263 263 264 265 268 270 271 273 274 275 275 276 278 280 281 281 280 279 279 281 282 283 284 285 285 284 284 284 284 285 285 284 284 285 285 285 286 286 286 286
260 260 261 262 263 264 264 265 268 270 272 273 274 275 275 276 278 280 280 280 280 280 280 281 282 282 283 285 285 285 285 285 286 286 286 286 285 284 284 285 285 286 286 286
259 260 261 262 263 265 265 266 268 270 272 273 274 274 275 276 277 278 280 281 280 280 281 281 282 283 284 285 285 285 286 287 288 288 287 287 287 286 286 286 286 285 285 285
260 261 262 263 264 265 266 267 268 270 271 273 274 275 274 275 277 278 280 281 281 281 281 281 282 283 284 285 285 285 286 286 287 288 288 289 289 288 288 287 286 286 286 285
261 262 263 264 265 266 267 267 269 271 273 274 275 275 275 275 276 278 279 281 281 282 282 283 283 283 283 284 285 286 286 287 287 288 288 288 289 290 290 289 288 288 287 286
260 262 263 264 265 266 267 269 270 271 273 274 275 275 275 276 276 278 279 280 281 281 282 283 284 284 285 285 285 286 287 288 288 289 289 289 289 289 290 290 290 289 288 286
261 262 264 265 266 267 268 269 270 272 273 274 275 275 275 276 276 278 279 280 281 281 282 282 283 284 285 285 286 287 288 288 289 289 289 288 289 290 290 290 290 289 289 287
261 262 263 265 267 268 269 269 271 272 273 274 274 275 275 277 277 277 279 280 280 281 282 282 283 283 285 285 286 287 288 287 287 287 287 287 288 289 289 289 289 289 289 288
263 263 264 265 266 268 269 270 271 273 274 275 275 275 276 276 277 278 279 280 280 281 282 283 283 284 285 285 286 287 288 288 288 288 288 288 288 288 288 288 288 287 287 287
Height
5844 5844 5844 5845 5845 5845 5845 5844 5844 5844 5843 5841 5839 5838 5837 5836 5835 5834 5832 5832 5831 5830 5829 5829 5828 5828 5828 5827 5827 5826 5825 5825 5824 5823 5822 5820 5820 5819 5818 5817 5817 5816 5816 5815
5839 5840 5840 5840 5840 5840 5840 5840 5839 5838 5838 5836 5835 5834 5833 5831 5830 5829 5828 5827 5826 5825 5825 5824 5823 5823 5822 5822 5822 5821 5821 5820 5819 5818 5817 5816 5815 5815 5814 5813 5812 5811 5811 5810
5834 5834 5834 5835 5836 5835 5835 5835 5834 5833 5833 5831 5830 5829 5828 5827 5825 5824 5823 5822 5821 5820 5819 5818 5818 5817 5817 5817 5816 5816 5815 5815 5814 5814 5813 5812 5811 5810 5809 5808 5807 5806 5805 5804
5828 5829 5829 5832 5830 5830 5829 5829 5829 5828 5827 5826 5825 5824 5823 5822 5820 5819 5818 5817 5816 5814 5813 5812 5812 5811 5811 5811 5811 5811 5810 5810 5809 5808 5808 5807 5806 5805 5804 5803 5802 5801 5800 5799
5822 5822 5823 5825 5824 5824 5824 5824 5823 5822 5821 5821 5819 5818 5818 5816 5815 5814 5813 5811 5810 5809 5807 5806 5806 5806 5805 5805 5805 5805 5805 5805 5804 5803 5802 5801 5800 5799 5798 5797 5796 5795 5794 5793
5816 5816 5817 5819 5818 5818 5819 5818 5817 5816 5815 5815 5813 5813 5812 5811 5810 5808 5807 5805 5804 5802 5800 5799 5799 5799 5799 5799 5800 5800 5800 5799 5799 5798 5797 5796 5795 5794 5793 5791 5790 5789 5788 5787
5810 5809 5810 5812 5812 5813 5814 5813 5811 5810 5810 5809 5807 5807 5806 5804 5803 5802 5801 5799 5798 5796 5794 5793 5793 5793 5793 5793 5794 5794 5794 5794 5793 5792 5791 5790 5789 5788 5787 5786 5784 5783 5782 5781
5803 5803 5806 5806 5805 5806 5806 5805 5804 5804 5803 5802 5801 5800 5799 5798 5797 5795 5794 5793 5792 5790 5789 5787 5787 5787 5788 5788 5788 5788 5788 5788 5787 5786 5785 5784 5783 5782 5781 5780 5778 5777 5775 5774
5797 5799 5799 5798 5798 5798 5798 5798 5797 5797 5796 5795 5794 5794 5793 5792 5791 5789 5788 5787 5786 5784 5783 5783 5782 5781 5782 5782 5782 5782 5782 5781 5781 5780 5779 5778 5777 5776 5775 5773 5772 5770 5769 5768
5789 5790 5791 5790 5790 5790 5790 5790 5790 5789 5789 5788 5787 5787 5786 5785 5784 5783 5782 5781 5780 5779 5778 5777 5776 5775 5775 5775 5775 5776 5775 5775 5774 5773 5772 5771 5770 5769 5768 5766 5765 5764 5762 5761
5781 5782 5783 5783 5782 5783 5782 5782 5782 5782 5781 5781 5780 5779 5779 5778 5777 5776 5775 5774 5773 5772 5771 5770 5770 5769 5769 5769 5769 5769 5768 5768 5767 5766 5765 5764 5762 5761 5760 5759 5758 5756 5755 5753
5773 5774 5774 5775 5774 5774 5775 5775 5774 5774 5774 5773 5772 5771 5771 5770 5770 5769 5768 5767 5766 5765 5764 5763 5762 5762 5762 5761 5761 5761 5761 5760 5759 5758 5757 5756 5755 5753 5752 5751 5749 5748 5746 5744
5764 5764 5765 5765 5765 5765 5766 5766 5766 5766 5765 5764 5764 5763 5762 5762 5761 5761 5760 5760 5759 5757 5756 5755 5755 5754 5754 5754 5753 5753 5752 5752 5751 5750 5749 5748 5747 5745 5744 5743 5741 5739 5737 5735
5755 5755 5756 5757 5757 5757 5757 5757 5757 5757 5757 5756 5756 5755 5754 5754 5753 5753 5752 5751 5750 5749 5748 5748 5747 5746 5746 5745 5745 5744 5744 5743 5742 5742 5741 5739 5738 5737 5735 5733 5732 5730 5728 5726
5745 5746 5747 5747 5748 5748 5749 5749 5749 5749 5749 5748 5748 5747 5746 5746 5745 5744 5744 5743 5742 5741 5740 5739 5739 5738 5737 5736 5736 5735 5735 5734 5733 5732 5731 5730 5729 5727 5725 5723 5722 5720 5718 5716
5736 5736 5737 5738 5739 5739 5740 5740 5740 5740 5740 5740 5739 5738 5738 5737 5736 5735 5735 5734 5733 5732 5732 5731 5730 5729 5728 5727 5727 5726 5725 5724 5723 5722 5721 5720 5718 5717 5715 5713 5711 5709 5708 5706
5726 5727 5728 5728 5729 5730 5731 5731 5731 5731 5731 5731 5731 5730 5729 5729 5728 5727 5726 5725 5724 5724 5723 5722 5721 5720 5719 5718 5717 5716 5715 5714 5713 5712 5710 5709 5707 5706 5704 5702 5700 5698 5697 5695
5716 5717 5718 5719 5720 5721 5721 5722 5722 5723 5723 5722 5722 5721 5720 5720 5720 5719 5718 5717 5716 5715 5714 5713 5712 5711 5710 5708 5707 5706 5704 5703 5702 5700 5699 5698 5696 5695 5693 5691 5689 5687 5685 5683
5706 5708 5709 5709 5710 5711 5712 5713 5713 5713 5713 5713 5713 5712 5711 5711 5710 5709 5709 5708 5707 5706 5705 5704 5703 5702 5700 5699 5697 5695 5694 5692 5691 5689 5687 5686 5684 5682 5681 5679 5677 5675 5673 5671
5697 5698 5699 5700 5701 5702 5702 5703 5703 5704 5704 5703 5703 5702 5702 5701 5700 5700 5699 5698 5697 5696 5695 5694 5693 5691 5690 5688 5687 5685 5683 5681 5679 5677 5676 5674 5672 5670 5668 5666 5664 5662 5660 5658
5687 5688 5689 5690 5691 5692 5693 5693 5694 5694 5694 5693 5693 5692 5692 5691 5690 5690 5689 5688 5687 5685 5685 5683 5682 5681 5679 5678 5676 5674 5672 5670 5668 5666 5664 5662 5660 5658 5655 5653 5651 5649 5647 5645
5677 5679 5680 5681 5682 5682 5683 5683 5683 5684 5683 5683 5683 5682 5681 5681 5680 5679 5678 5677 5676 5675 5674 5673 5672 5670 5668 5667 5665 5663 5661 5659 5657 5655 5652 5650 5647 5645 5643 5640 5638 5636 5633 5631
5668 5669 5670 5671 5672 5672 5672 5673 5673 5673 5673 5673 5672 5671 5671 5670 5669 5669 5668 5667 5665 5664 5663 5662 5660 5659 5657 5655 5653 5652 5650 5647 5645 5643 5640 5638 5635 5633 5630 5627 5624 5622 5620 5618
5658 5659 5660 5661 5661 5661 5662 5662 5662 5662 5662 5662 5661 5660 5660 5659 5659 5658 5657 5656 5654 5653 5652 5650 5649 5647 5645 5643 5642 5640 5637 5635 5633 5630 5628 5625 5622 5620 5617 5614 5611 5609 5606 5604
5648 5648 5649 5650 5650 5650 5651 5651 5651 5651 5651 5650 5650 5649 5648 5648 5647 5646 5645 5644 5643 5642 5640 5639 5637 5635 5633 5632 5629 5627 5625 5622 5620 5617 5615 5612 5609 5607 5604 5601 5599 5596 5593 5591
5637 5638 5638 5639 5639 5639 5640 5640 5640 5640 5639 5639 5638 5637 5637 5636 5635 5635 5634 5632 5631 5630 5629 5627 5625 5623 5621 5619 5617 5615 5612 5609 5607 5604 5601 5599 5596 5594 5591 5588 5585 5583 5580 5577
5626 5626 5627 5628 5628 5628 5629 5629 5629 5628 5628 5627 5627 5626 5625 5624 5624 5623 5622 5620 5619 5618 5616 5614 5613 5611 5609 5607 5604 5602 5599 5596 5593 5591 5588 5585 5582 5580 5577 5574 5571 5569 5566 5564